EW9704 Weather Reports


time (UTC)temp
F
wind
direction
speed
knots
gust
knots
rain 1hr
in
rain 24hr
in
rain mn
in
humidity
%
barometer
mb
20260506143042 70 51 1.7 9.6 0.00 0.00 0.00 36 1010.4
20260506141535 78 291 0.0 0.0 0.00 0.00 0.00 1 1010.2
20260506140031 77 226 0.0 0.0 0.00 0.00 0.00 1 1009.4
20260506134526 76 220 0.0 0.0 0.00 0.00 0.00 1 1009.5
20260506133024 75 214 0.0 3.5 0.00 0.00 0.00 1 1009.3
20260506131529 74 183 0.0 3.5 0.00 0.00 0.00 1 1009.2
20260506130014 73 287 0.0 0.0 0.00 0.00 0.00 1 1009.1
20260506124511 73 287 0.0 0.0 0.00 0.00 0.00 1 1009.1
20260506123006 0 0.0 0.0 0.00 0.00 0.00 1008.8
20260506121502 0 0.0 0.0 0.00 0.00 0.00 1008.8
20260506120106 0 0.0 0.0 0.00 0.00 0.00 1008.8
20260506114553 0 0.0 0.0 0.00 0.00 0.00 1008.9
20260506113054 0 0.0 0.0 0.00 0.00 0.00 1008.8
20260506111544 0 0.0 0.0 0.00 0.00 0.00 1008.7
20260506110050 0 0.0 0.0 0.00 0.00 0.00 1008.7
20260506104541 0 0.0 0.0 0.00 0.00 0.00 1008.4
20260506103041 0 0.0 0.0 0.00 0.00 0.00 1008.2
20260506101540 0 0.0 0.0 0.00 0.00 0.00 1008.1
20260506100022 0 0.0 0.0 0.00 0.00 0.00 1007.8
20260506094523 0 0.0 0.0 0.00 0.00 0.00 1007.8
20260506093017 0 0.0 0.0 0.00 0.00 0.00 1007.7
20260506091513 74 272 0.9 3.5 0.00 0.00 0.00 1 1007.6
20260506090005 74 218 0.9 6.1 0.00 0.00 0.00 1 1007.6
20260506084623 74 274 1.7 6.1 0.00 0.00 0.00 1 1007.6
20260506083056 74 270 0.9 7.0 0.00 0.00 0.00 1 1007.6
20260506081555 74 227 0.0 5.2 0.00 0.00 0.00 1 1007.7
20260506073044 74 306 3.5 10.4 0.00 0.00 0.00 1 1007.9
20260506071536 74 258 3.5 9.6 0.00 0.00 0.00 1 1007.8
20260506061516 73 273 1.7 8.7 0.00 0.00 0.00 1 1007.7
20260506044651 74 208 1.7 7.0 0.00 0.00 0.00 1 1007.7
20260506043046 75 274 0.9 7.0 0.00 0.00 0.00 1 1007.6
20260506041551 75 183 2.6 7.0 0.00 0.00 0.00 1 1007.5
20260506040036 75 227 2.6 7.8 0.00 0.00 0.00 1 1007.3
20260506034559 75 222 1.7 6.1 0.00 0.00 0.00 1 1007.3
20260506033026 76 208 2.6 7.0 0.00 0.00 0.00 1 1006.9
20260506031523 76 173 1.7 9.6 0.00 0.00 0.00 1 1006.8
20260506030018 76 184 2.6 5.2 0.00 0.00 0.00 1 1006.6
20260506024513 77 216 2.6 5.2 0.00 0.00 0.00 5 1006.4
20260506023009 77 186 1.7 6.1 0.00 0.00 0.00 12 1006.1
20260506021504 77 209 1.7 5.2 0.00 0.00 0.00 22 1005.8
20260506020100 78 202 0.0 3.5 0.00 0.00 0.00 35 1005.8
20260506014555 78 205 0.0 4.3 0.00 0.00 0.00 42 1005.6
20260506013050 79 219 1.7 3.5 0.00 0.00 0.00 48 1005.6
20260506011557 80 271 0.9 4.3 0.00 0.00 0.00 53 1005.5
20260506010051 80 263 0.0 6.1 0.00 0.00 0.00 57 1005.5
20260506004558 81 178 1.7 6.1 0.00 0.00 0.00 58 1005.3
20260506003043 81 292 0.9 3.5 0.00 0.00 0.00 58 1005.2
20260506001528 81 233 0.9 5.2 0.00 0.00 0.00 62 1005.0
20260506000026 82 236 0.9 6.1 0.00 0.00 0.00 65 1004.9
20260505234530 82 216 0.9 4.3 0.00 0.00 0.00 66 1004.7
20260505233015 83 267 1.7 8.7 0.00 0.00 0.00 67 1004.4
20260505231514 83 180 3.5 8.7 0.00 0.00 0.00 68 1004.3
20260505230008 83 219 2.6 6.1 0.00 0.00 0.00 68 1004.4
20260505224501 83 218 3.5 7.0 0.00 0.00 0.00 68 1004.7
20260505223057 83 216 3.5 11.3 0.00 0.00 0.00 68 1004.5
20260505221553 84 183 5.2 11.3 0.00 0.00 0.00 68 1004.7
20260505220100 84 238 3.5 11.3 0.00 0.00 0.00 68 1004.6
20260505214543 84 223 6.1 13.9 0.00 0.00 0.00 68 1004.9
20260505213039 84 231 5.2 13.0 0.00 0.00 0.00 68 1005.1
20260505211542 85 311 4.3 12.2 0.00 0.00 0.00 68 1005.3
20260505210031 83 225 5.2 10.4 0.00 0.00 0.00 68 1005.6
20260505204524 83 218 6.1 13.9 0.00 0.00 0.00 68 1005.7
20260505203021 83 195 5.2 16.5 0.00 0.00 0.00 68 1006.0
20260505201522 83 201 4.3 13.0 0.00 0.00 0.00 67 1006.2
20260505200012 82 220 4.3 11.3 0.00 0.00 0.00 68 1006.4
20260505194520 82 228 7.0 13.0 0.00 0.00 0.00 68 1006.8
20260505193010 80 260 3.5 11.3 0.00 0.00 0.00 64 1007.1
20260505191601 80 285 1.7 12.2 0.00 0.00 0.00 62 1007.2
20260505190054 79 319 3.5 8.7 0.00 0.00 0.00 57 1007.3
20260505184549 78 281 4.3 12.2 0.00 0.00 0.00 56 1007.6
20260505183045 78 252 4.3 9.6 0.00 0.00 0.00 56 1007.5
20260505181540 78 219 6.1 12.2 0.00 0.00 0.00 56 1007.5
20260505180046 78 214 5.2 12.2 0.00 0.00 0.00 50 1007.5
20260505174538 77 277 5.2 13.0 0.00 0.00 0.00 42 1007.7
20260505173026 76 204 3.5 12.2 0.00 0.00 0.00 20 1007.8
20260505171529 75 224 3.5 8.7 0.00 0.00 0.00 13 1008.1
20260505170024 74 273 2.6 9.6 0.00 0.00 0.00 5 1008.1
20260505164517 74 279 0.9 9.6 0.00 0.00 0.00 3 1008.3
20260505163009 74 224 4.3 9.6 0.00 0.00 0.00 6 1008.2
20260505161503 74 227 5.2 12.2 0.00 0.00 0.00 1 1008.2
20260505153057 73 238 2.6 13.9 0.00 0.00 0.00 1 1008.1
20260505151550 73 275 3.5 12.2 0.00 0.00 0.00 2 1008.1